Regional Weather Roundup
Issued by NWS

Home | Current Version | Previous Version | Graphics & Text | Print | Product List | Glossary On
Versions: 1 2 3 4 5 6 7 8 9 10 11 12 13 14 15 16 17 18 19 20 21 22 23 24 25 26 27 28 29 30 31 32 33 34 35 36 37 38 39 40 41 42 43 44 45 46 47 48 49 50
000
ASUS45 KTFX 221310
RWRMT
MONTANA REGIONAL WEATHER ROUNDUP
NATIONAL WEATHER SERVICE GREAT FALLS MT
700 AM MDT SUN OCT 22 2017

NOTE: "FAIR" INDICATES FEW OR NO CLOUDS BELOW 12000 FEET WITH NO
SIGNIFICANT WEATHER AND/OR OBSTRUCTIONS TO VISIBILITY.

MTZ001>007-043-221400-
WEST OF THE DIVIDE

CITY           SKY/WX    TMP DP  RH WIND       PRES   REMARKS
KALISPELL      LGT RAIN  45  43  93 S7        29.73R
MISSOULA       LGT RAIN  49  39  68 VRB3      29.86S
BUTTE          CLOUDY    45  33  63 S6        29.96S
MULLAN PASS    RAIN      35  34  96 SW10G25   29.78S VSB 1   WCI  27
ANACONDA         N/A     46  34  61 S29G43    29.88F
DEER LODGE       N/A     46  36  66 S12G29    29.88F
EUREKA           N/A     41  39  93 MISG      29.68S
HAMILTON         N/A     46  39  76 S12       29.91S
LIBBY            N/A     37  37 100 CALM      29.69S
$$

MTZ008-052>055-221400-
SOUTHWEST MONTANA

CITY           SKY/WX    TMP DP  RH WIND       PRES   REMARKS
BOZEMAN        CLOUDY    53  31  42 S9        29.94F
DILLON         CLOUDY    45  29  53 S10       30.01S
W YELLOWSTONE  CLOUDY    34  32  93 VRB5G12   30.17S FOG
ENNIS          CLOUDY    43  30  61 S22G31    30.08R
THREE FORKS      N/A     52  31  44 SW26      29.90F
$$

MTZ009-010-012-014-046-048-049-054-221400-
EAST SLOPES AND CENTRAL MONTANA

CITY           SKY/WX    TMP DP  RH WIND       PRES   REMARKS
CUT BANK       CLOUDY    46  35  65 W32G43    29.61R
GREAT FALLS    CLOUDY    52  34  50 SW21G32   29.70R
MALMSTROM AFB  CLOUDY    53  35  49 SW31G39   29.69F
HELENA         PTCLDY    54  36  50 W14G21    29.83R
BOWMANS CRNR     N/A     44  35  72 SW31G37   29.71S
CHOTEAU          N/A     48  36  61 SW35G45   29.65S
FAIRFIELD        N/A     49  34  56 SW30G40   29.67S
POWER            N/A     47  35  62 S21       29.67R
RAYNESFORD     MOCLDY    56  32  39 W33G41    29.70F
ULM            MOCLDY    54  34  46 SW28G41   29.70S
$$

MTZ011-013-016-021-045-047-050-051-221400-
NORTH CENTRAL MONTANA

CITY           SKY/WX    TMP DP  RH WIND       PRES   REMARKS
HAVRE          CLOUDY    53  34  48 SW20G25   29.59F
LEWISTOWN      CLOUDY    52  31  44 SW28G37   29.75S
N BAR RANCH    CLOUDY    54  28  37 W18G25    29.76S
CHINOOK          N/A     39  34  81 E5        29.61F
DENTON         CLOUDY    51  32  48 S13G20    29.67F
GEYSER         MOCLDY    52  31  44 W25G33    29.67R
GRASS RANGE    LGT RAIN  51  34  52 W15       29.69F
JUDITH GAP     CLOUDY    49  30  46 SW35G40   29.79F
WINIFRED       CLOUDY    52  31  45 SW21G29   29.69S
$$

MTZ017>020-022>027-061-062-221400-
NORTHEAST MONTANA

CITY           SKY/WX    TMP DP  RH WIND       PRES   REMARKS
GLASGOW        CLOUDY    37  29  72 SE12      29.67F WCI  29
JORDAN           N/A     46  29  51 W13       29.71F
SIDNEY         CLOUDY    30  24  78 S8        29.76F WCI  22
WOLF POINT     CLOUDY    29  24  82 NE3       29.71F
MALTA          CLOUDY    39  28  65 W8        29.65F
PLENTYWOOD       N/A     28  21  74 CALM      29.70F
POPLAR           N/A     34  25  69 SE3       29.72F
$$

MTZ028>42-056>058-221400-
SOUTHCENTRAL AND SOUTHEAST MONTANA

CITY           SKY/WX    TMP DP  RH WIND       PRES   REMARKS
BAKER          CLEAR     42  20  41 SW16      29.82F
BILLINGS       CLOUDY    50  26  39 W17       29.82F
LIVINGSTON     MOCLDY    50  30  46 SW44G61   29.86F
MILES CITY     PTCLDY    34  24  67 SE12      29.79F WCI  25
BIG TIMBER     MOCLDY    50  28  43 W23G33    29.85S
FORSYTH          N/A     48  23  37 SW9       29.79F
HARLOWTON      CLOUDY    53  30  41 W10       29.81S
LAUREL           N/A     50  23  34 SW24      29.85S
$$

REGIONAL REPORTS...DAKOTAS

CITY           SKY/WX    TMP DP  RH WIND       PRES   REMARKS
WILLISTON      CLEAR     32  25  75 SW7       29.75F WCI  26
MINOT          CLEAR     38  28  67 SW12      29.74F WCI  30
DICKINSON      CLEAR     35  19  52 SW12      29.81S WCI  27
BEACH            N/A     36  18  48 SW15      29.82F WCI  26
CROSBY           N/A     30  25  80 S13       29.71S WCI  20
TIOGA            N/A     32  28  86 SW13G18   29.75F WCI  22
BISMARCK       CLEAR     35  25  66 W3        29.86F
GRAND FORKS    CLEAR     42  34  73 W16       29.77R
FARGO          CLEAR     40  33  76 SW12      29.87R
BUFFALO SD       N/A     34  18  52 W12       29.82S WCI  25
RAPID CITY     CLOUDY    26  16  65 CALM      29.95F
$$

REGIONAL REPORTS...WYOMING/IDAHO/WASHINGTON

CITY           SKY/WX    TMP DP  RH WIND       PRES   REMARKS
GILLETTE       CLEAR     44  19  36 SW21      29.92F
SHERIDAN       CLOUDY    37  22  54 W3        29.88S
BUFFALO WY     CLOUDY    38  14  37 VRB3      29.93S
CODY           CLOUDY    50  27  40 W22G36    30.01R
YELLOWSTONE LA   N/A     30  30 100 CALM      30.20F
IDAHO FALLS    CLOUDY    45  34  65 S17       30.22F
SALMON         CLOUDY    40  37  89 N8        30.07S
BOISE          CLOUDY    47  40  76 SE13      30.21R
SPOKANE        DRIZZLE   50  48  93 SW18G26   29.77R
$$

REGIONAL REPORTS...ALBERTA

CITY           SKY/WX    TMP DP  RH WIND       PRES   REMARKS
EDMONTON       CLOUDY    30  27  86 CALM      29.35S
CALGARY        CLEAR     39  23  52 W3        29.39R
LETHBRIDGE     MOCLDY    45  34  65 SW24G31   29.50F
MEDICINE HAT   CLOUDY    50  36  57 S23G35    29.46F
$$

REGIONAL REPORTS...SASKATCHEWAN

CITY           SKY/WX    TMP DP  RH WIND       PRES   REMARKS
SWIFT CURRENT  LGT RAIN  36  28  75 S17G24    29.50F WCI  25
REGINA         MOCLDY    27  23  86 SE8       29.63S WCI  18
SASKATOON      MOCLDY    28  25  86 SE7       29.54F WCI  21
$$



USA.gov is the U.S. government's official web portal to all federal, state and local government web resources and services.